Other Public Products
Issued by NWS Grand Forks, ND

Home | Current Version | Previous Version | Graphics & Text | Print | Product List | Glossary On
Versions: 1 2 3 4 5 6 7 8 9 10 11 12 13 14 15 16 17 18 19 20 21 22 23 24 25 26 27 28 29 30 31 32 33 34 35 36 37 38 39 40 41 42 43 44 45 46 47 48 49 50
000
FPUS83 KFGF 261231
OPUFGF
PRAIRIE TO PINES WEATHER ROUNDUP
NATIONAL WEATHER SERVICE EASTERN NORTH DAKOTA/GRAND FORKS ND
600 AM CST SUN FEB 26 2017

 **SATELLITE DATA USED TO AUGMENT SKY COVER AT AUTOMATED STATIONS**
 *****  WEATHER ACROSS EASTERN NORTH DAKOTA  *****

CITY           SKY/WX    TMP DP  RH WIND       PRES   REMARKS
GRAND FORKS    FAIR       2  -4  76 NW6       29.78R WCI  -9
6HR MIN TEMP:   2; 6HR MAX TEMP:  17; 6HR PCP:  0.05;

GRAND FORKS AF FAIR       1  -3  83 NW6       29.78R WCI -11
GRAND CITY NWS NOT AVBL
BUXTON         NOT AVBL
DEVILS LAKE    FAIR      -6  -9  84 W3        29.76R FOG
6HR MIN TEMP:  -4; 6HR MAX TEMP:  11; 6HR PCP: TRACE;

FARGO          CLOUDY    15   9  76 N17       29.76R WCI  -1
6HR MIN TEMP:  15; 6HR MAX TEMP:  23; 6HR PCP:  0.03;

WAHPETON ARPT  CLOUDY   N/A N/A N/A N15       29.74R
$$

 *****  WEATHER ACROSS CENTRAL AND WESTERN NORTH DAKOTA  *****

CITY           SKY/WX    TMP DP  RH WIND       PRES   REMARKS
JAMESTOWN      CLOUDY    14   9  80 N8        29.74R WCI   3
6HR MIN TEMP:  14; 6HR MAX TEMP:  26; 6HR PCP: TRACE;

BISMARCK       CLOUDY    14   8  77 NW3       29.78R
6HR MIN TEMP:  12; 6HR MAX TEMP:  25;

MINOT          FAIR       0  -5  79 SW8       29.72F WCI -14
6HR MIN TEMP:  -1; 6HR MAX TEMP:   9;

MINOT AFB      FAIR      -6 -10  81 W6        29.72F WCI -19
6HR MIN TEMP:  -7; 6HR MAX TEMP:   1;

GARRISON         N/A     -1  -4  87 W3        29.74R
6HR MIN TEMP:  -1; 6HR MAX TEMP:  13;

WILLISTON      CLOUDY    10   7  87 CALM      29.71S
6HR MIN TEMP:   0; 6HR MAX TEMP:  10; 6HR PCP: TRACE;

DICKINSON      FLURRIES  14  11  87 E7        29.65S WCI   4
6HR MIN TEMP:  13; 6HR MAX TEMP:  18; 6HR PCP: TRACE;

HETTINGER      MOCLDY    12   9  87 NE7       29.68S WCI   1
6HR MIN TEMP:   7; 6HR MAX TEMP:  14;

$$

 *****  OTHER OBSERVATIONS NORTHEAST NORTH DAKOTA  *****

CITY           SKY/WX    TMP DP  RH WIND       PRES   REMARKS
WALHALLA       NOT AVBL
LANGDON        NOT AVBL
CAVALIER         N/A      3   0  85 W6        29.78R WCI  -8
GRAFTON        FAIR       5   3  92 NW6       29.80S WCI  -6
CANDO          NOT AVBL
FORT TOTTEN      N/A      3   1  92 CALM      29.95S
ROLLA          FAIR       0  -2  92 W10       29.72R WCI -17
RUGBY            N/A    -11 -15  84 CALM      29.75S FOG
 ***** THE ABOVE OBSERVATIONS ARE NON NWS ARE NOT QUALITY
        CONTROLLED AND MAY MIS-REPORT RAIN FOR SNOW...
$$

 *****  OTHER OBSERVATIONS SOUTHEAST NORTH DAKOTA *****

CITY           SKY/WX    TMP DP  RH WIND       PRES   REMARKS
COOPERSTOWN    CLOUDY     5   3  92 W7        29.76R WCI  -7
VALLEY CITY    FLURRIES  12  12 100 N8        29.77R WCI   1
OAKES          NOT AVBL
GWINNER        PTSUNNY   18  16  93 N10       29.75R WCI   6
SHEYENNE NWR     N/A     14   8  76 N12       29.95  WCI   0
BUFFALO        NOT AVBL
WYNDMERE         N/A     18  16  93 N16         N/A  WCI   3
 ***** THE ABOVE OBSERVATIONS ARE NON NWS ARE NOT QUALITY
       CONTROLLED AND MAY MIS-REPORT RAIN FOR SNOW...
$$

  *****  WEATHER ACROSS NORTHERN MINNESOTA  *****

CITY           SKY/WX    TMP DP  RH WIND       PRES   REMARKS
FLAG ISLAND    FAIR       3   0  85 NW8       29.71S WCI -10
WARROAD        FAIR       3   0  85 W5        29.73R WCI  -6
ROSEAU         FAIR       3   0  85 W3        29.74R
HALLOCK        FAIR       3   0  85 NW5       29.77R WCI  -6
THF RVR FALLS    N/A    N/A N/A N/A MISG        N/A
HALSTAD          N/A      9   5  83 N10         N/A  WCI  -5
FOSSTON        LGT SNOW   9   7  92 N8        29.72R WCI  -4
BAUDETTE       FAIR       7  -2  66 NW8       29.70R WCI  -6
6HR MIN TEMP:   7; 6HR MAX TEMP:  12; 6HR PCP: TRACE;

WASKISH        CLOUDY     9   5  85 N6        29.71R WCI  -1
CROOKSTON      FAIR       9   5  85 N8        29.78R WCI  -4
$$
  *****  WEATHER ACROSS CENTRAL AND WEST MINNESOTA  *****

CITY           SKY/WX    TMP DP  RH WIND       PRES   REMARKS
BEMIDJI        LGT SNOW  11   8  85 N7        29.68R WCI   1
PARK RAPIDS    LGT SNOW  19  14  81 N12       29.64R WCI   7
6HR MIN TEMP:  19; 6HR MAX TEMP:  23; 6HR PCP: TRACE;

WADENA         LGT SNOW  19  18  93 CALM      29.65R
DETROIT LAKES  FLURRIES  18  12  79 N16G25    29.69R WCI   3
MOORHEAD       FLURRIES  12  10  92 N15       29.76R WCI  -4
FERGUS FALLS   CLOUDY    19  19 100 N12       29.74R WCI   7
ELBOW LAKE     CLOUDY    24  24  99 SW7       29.69R WCI  16
MORRIS MN      CLOUDY    27  25  93 W9        29.69R WCI  17
STAPLES        LGT SNOW  19  18  93 CALM      29.65R
WHEATON        CLOUDY    27  23  86 W15G21    29.72S WCI  15
$$
  *****  WEATHER ELSEWHERE ACROSS MINNESOTA  *****

CITY           SKY/WX    TMP DP  RH WIND       PRES   REMARKS
DULUTH         CLOUDY    24  22  91 SW10      29.61F WCI  14
6HR MIN TEMP:  24; 6HR MAX TEMP:  26; 6HR PCP:  0.12;

INTRNTL FALLS  LGT SNOW  10   6  84 W9        29.67R FOG     WCI  -3
6HR MIN TEMP:   7; 6HR MAX TEMP:  13; 6HR PCP:  0.02;

ELY            LGT SNOW  16  12  86 CALM      29.61S
CLOQUET        CLOUDY    25  21  86 SW5       29.63R WCI  19
BRAINERD       LGT SNOW  23  23 100 W5        29.65S FOG     WCI  17
6HR MIN TEMP:  20; 6HR MAX TEMP:  26; 6HR PCP: TRACE;

HIBBING        CLOUDY    19  14  81 NW5       29.62S WCI  12
6HR MIN TEMP:  14; 6HR MAX TEMP:  21; 6HR PCP:  0.01;

ALEXANDRIA     CLOUDY    26  24  92 W10       29.66S WCI  16
6HR MIN TEMP:  23; 6HR MAX TEMP:  27; 6HR PCP: TRACE;

SAINT CLOUD    MOCLDY    25  21  85 SW8       29.69S WCI  16
6HR MIN TEMP:  25; 6HR MAX TEMP:  27; 6HR PCP: TRACE;

MINNEAPOLIS    FAIR      24  16  71 SW8       29.74S WCI  15
6HR MIN TEMP:  24; 6HR MAX TEMP:  26;

$$

  *****  WEATHER ACROSS SOUTH DAKOTA  *****

CITY           SKY/WX    TMP DP  RH WIND       PRES   REMARKS
SIOUX FALLS    FAIR      17  14  88 SW3       29.76S
6HR MIN TEMP:  15; 6HR MAX TEMP:  23;

BROOKINGS      MOCLDY    23  21  92 SW7       29.72R WCI  15
WATERTOWN      FAIR      23  21  92 W12       29.70R WCI  12
6HR MIN TEMP:  22; 6HR MAX TEMP:  25; 6HR PCP: TRACE;

HURON          FAIR      21  19  92 W8        29.76R WCI  11
6HR MIN TEMP:  21; 6HR MAX TEMP:  25;

SISSETON         N/A     28  23  81 NW20G28   29.70R WCI  15
ABERDEEN       FAIR      22  17  81 NW14      29.75R WCI   9
6HR MIN TEMP:  19; 6HR MAX TEMP:  25; 6HR PCP: TRACE;

MITCHELL       FAIR      23  18  81 W12       29.78R WCI  12
PIERRE         FAIR      20  17  88 W5        29.76R WCI  13
6HR MIN TEMP:  20; 6HR MAX TEMP:  26;

MOBRIDGE       FAIR      19  14  81 N7        29.72R WCI  10
RAPID CITY     FAIR      16   9  74 W5        29.74R WCI   9
6HR MIN TEMP:  14; 6HR MAX TEMP:  23;

$$

  *****  SOME WEATHER IN NEARBY STATES *****

CITY           SKY/WX    TMP DP  RH WIND       PRES   REMARKS
GLASGOW MT     LGT SNOW  18  14  84 E6        29.66R FOG     WCI  10
6HR MIN TEMP:  17; 6HR MAX TEMP:  18; 6HR PCP: TRACE;

GREAT FALLS MT FLURRIES  24  20  84 NW8       29.71S WCI  15
6HR MIN TEMP:  24; 6HR MAX TEMP:  28; 6HR PCP: TRACE;

CHEYENNE WY    FAIR      13  -3  49 W14       29.74S WCI  -2
6HR MIN TEMP:  10; 6HR MAX TEMP:  14;

SCOTTSBLUFF NE FAIR       8   1  73 W10       29.82S WCI  -6
6HR MIN TEMP:   5; 6HR MAX TEMP:  14;

OMAHA NE       MOCLDY    33  20  58 SW7       29.87R
6HR MIN TEMP:  31; 6HR MAX TEMP:  35;

DES MOINES IA  FAIR      29  20  69 SW12      29.88R WCI  19
6HR MIN TEMP:  29; 6HR MAX TEMP:  33;

DAVENPORT IA   MOCLDY    30  17  58 S18       29.93F WCI  18
6HR MIN TEMP:  25; 6HR MAX TEMP:  30;

CHICAGO IL     MOCLDY    25  19  78 S8        30.01S WCI  16
6HR MIN TEMP:  21; 6HR MAX TEMP:  26;

EAU CLAIRE WI  CLOUDY    21  15  78 S7        29.75S WCI  12
6HR MIN TEMP:  19; 6HR MAX TEMP:  23; 6HR PCP: TRACE;

LA CROSSE WI   FAIR      29  19  66 S10       29.80F WCI  20
6HR MIN TEMP:  24; 6HR MAX TEMP:  29;

$$

  *****  SOME NATIONAL WEATHER *****

CITY           SKY/WX    TMP DP  RH WIND       PRES   REMARKS
LA GUARDIA NY  MOCLDY    39  19  44 NW18G24   29.89R
6HR MIN TEMP:  39; 6HR MAX TEMP:  45;

RALEIGH NC     FAIR      37  18  46 VRB5      30.11R



USA.gov is the U.S. government's official web portal to all federal, state and local government web resources and services.